STARLINK-4627, 53711

Orbit data source: Space-Track

STARLINK-4627, 53711 is a payload satellite owned by SpaceX/Seattle (US) in LEO that was launched on Mon, 05 Sep 2022 UTC via an FALCON 9 launch vehicle from the Air Force Eastern Test Range (AFETR). Payload-class satellites include a variety of spacecraft equipped with specific instruments for various scientific and technological missions. These include communications satellites like Starlink; space stations such as the ISS; scientific satellites like the Hubble; Earth observation satellites from companies like Planet Labs, Umbra, and HawkEye 360; GPS; miniature CubeSats for education and research; and military/defense satellites.

Loading next visibility...
Identifier
53711, 2022-107M
Orbit
LEO
Country
Flag of USUS
Related business
Manufacturer
SpaceX/Seattle
Mission
Operational Commercial Communications
Bus & Motor
STARLINK, Unknown motor
Mass
305 kg wet, ~290 kg dry
Launch date (UTC)
2022-09-05 (4 years ago)
Launch vehicle
FALCON 9
Launch site
Air Force Eastern Test Range (AFETR)
Object type
Payload
Rocket body
Debris
Shape & HBR
Box + 1 Pan, 10.1 m
Radar Cross Section
13.562 m², Large (>1 m²)

Expand to show TLE details & history
Last TLE update: 2 days ago

TLE from 2 days ago
0 STARLINK-4627
1 53711U 22107M   26171.41668980  .00079221  00000-0  40483-2 0  9990
2 53711  53.1596 147.5564 0001901  55.6832  42.2757 15.15989829  5829
Epoch: 2026-06-20T10:00Z
TLE epoch observation values (Epoch: 2026-06-20T10:00:01.998Z)
Latitude
52.57736°
Longitude
-167.91979°
Altitude
523.42 km
Speed
7.608 km/s
True Right ascension
16h 42m 52s
True Declination
52° 24' 20"
Sunlit
Object was in daylight at epoch
Visualization orbit readout
Latitude
Unknown
Longitude
Unknown
Altitude
Unknown
Speed
Unknown
Apparent Right ascension
Unknown
Apparent Declination
Unknown
Sunlit
N/A
Visualization observer readout
Local Sidereal Time
00:33:49
Azimuth
Unknown
Elevation
Unknown
Doppler factor
Unknown
Orbital elements
Apogee altitude
519.541 km
Perigee altitude
516.919 km
Semi-major axis
6,896.367 km
Eccentricity
0.00019
Inclination
53.1596°
RAAN
147.5564°
Arg. of periapsis
55.6832°
True anomaly
42.29036°
Mean anomaly
42.2757°
Eccentric anomaly
42.28303°
Mean motion
3.78977 °/min
Orbital period
94.99 mins
BSTAR
0.0040483
Loading maneuver chart data...
Computing Atmospheric mass density...

Documentation

Showing up to 5 results
|